Hourly Weather Galapagar

Today, 4 August, Tuesday

Time Temperature Precipitation Wind Pressure Humidity
00:00 +21°C° 0 mm 3 mps 689 mmHg 45%
01:00 +20°C° 0 mm 3 mps 689 mmHg 48%
02:00 +20°C° 0 mm 3 mps 689 mmHg 50%
03:00 +19°C° 0 mm 2 mps 688 mmHg 52%
04:00 +19°C° 0 mm 2 mps 688 mmHg 53%
05:00 +19°C° 0 mm 2 mps 688 mmHg 54%
06:00 +19°C° 0 mm 2 mps 688 mmHg 54%
07:00 +21°C° 0 mm 2 mps 689 mmHg 48%
08:00 +24°C° 0 mm 2 mps 689 mmHg 42%
09:00 +26°C° 0 mm 2 mps 689 mmHg 37%
10:00 +27°C° 0 mm 2 mps 689 mmHg 33%
11:00 +29°C° 0 mm 2 mps 689 mmHg 30%
12:00 +30°C° 0 mm 2 mps 689 mmHg 26%
13:00 +31°C° 0 mm 2 mps 689 mmHg 24%
14:00 +32°C° 0 mm 2 mps 688 mmHg 23%
15:00 +34°C° 0 mm 2 mps 688 mmHg 21%
16:00 +32°C° 0 mm 2 mps 688 mmHg 21%
17:00 +32°C° 0 mm 2 mps 688 mmHg 21%
18:00 +32°C° 0 mm 2 mps 687 mmHg 21%
19:00 +30°C° 0 mm 2 mps 687 mmHg 23%
20:00 +28°C° 0 mm 2 mps 688 mmHg 26%
21:00 +27°C° 0 mm 1 mps 688 mmHg 28%
22:00 +26°C° 0 mm 2 mps 688 mmHg 29%
23:00 +25°C° 0 mm 2 mps 687 mmHg 30%

Tomorrow, 5 August, Wednesday

Time Temperature Precipitation Wind Pressure Humidity
00:00 +24°C° 0 mm 2 mps 687 mmHg 31%
01:00 +24°C° 0 mm 2 mps 687 mmHg 34%
02:00 +23°C° 0 mm 2 mps 687 mmHg 37%
03:00 +23°C° 0 mm 2 mps 687 mmHg 40%
04:00 +21°C° 0 mm 2 mps 687 mmHg 44%
05:00 +21°C° 0 mm 2 mps 687 mmHg 48%
06:00 +22°C° 0 mm 1 mps 687 mmHg 52%
07:00 +24°C° 0 mm 1 mps 687 mmHg 48%
08:00 +26°C° 0 mm 1 mps 688 mmHg 45%
09:00 +28°C° 0 mm 1 mps 688 mmHg 41%
10:00 +30°C° 0 mm 2 mps 688 mmHg 36%
11:00 +31°C° 0 mm 2 mps 688 mmHg 32%
12:00 +34°C° 0 mm 2 mps 688 mmHg 27%
13:00 +35°C° 0 mm 2 mps 687 mmHg 25%
14:00 +36°C° 0 mm 3 mps 687 mmHg 23%
15:00 +37°C° 0 mm 3 mps 687 mmHg 21%
16:00 +36°C° 0 mm 3 mps 687 mmHg 21%
17:00 +36°C° 0 mm 2 mps 686 mmHg 22%
18:00 +35°C° 0 mm 2 mps 686 mmHg 23%
19:00 +34°C° 0 mm 2 mps 687 mmHg 25%
20:00 +31°C° 0 mm 1 mps 687 mmHg 26%
21:00 +30°C° 0 mm 1 mps 687 mmHg 28%
22:00 +29°C° 0 mm 1 mps 687 mmHg 30%
23:00 +29°C° 0 mm 1 mps 687 mmHg 31%

Day after tomorrow, 6 August, Thursday

Time Temperature Precipitation Wind Pressure Humidity
00:00 +28°C° 0 mm 2 mps 687 mmHg 32%
01:00 +27°C° 0 mm 2 mps 687 mmHg 36%
02:00 +26°C° 0 mm 2 mps 687 mmHg 39%
03:00 +26°C° 0 mm 2 mps 687 mmHg 43%
04:00 +25°C° 0 mm 2 mps 687 mmHg 47%
05:00 +25°C° 0 mm 2 mps 687 mmHg 50%
06:00 +24°C° 0 mm 2 mps 688 mmHg 53%
07:00 +26°C° 0 mm 2 mps 688 mmHg 49%
08:00 +28°C° 0 mm 3 mps 688 mmHg 45%
09:00 +30°C° 0 mm 3 mps 689 mmHg 41%
10:00 +31°C° 0 mm 3 mps 689 mmHg 36%
11:00 +34°C° 0 mm 3 mps 689 mmHg 31%
12:00 +35°C° 0 mm 2 mps 689 mmHg 26%
13:00 +36°C° 0 mm 3 mps 689 mmHg 24%
14:00 +37°C° 0 mm 3 mps 689 mmHg 21%
15:00 +38°C° 0 mm 3 mps 689 mmHg 18%
16:00 +38°C° 0 mm 3 mps 688 mmHg 17%
17:00 +38°C° 0 mm 3 mps 688 mmHg 16%
18:00 +37°C° 0 mm 3 mps 688 mmHg 14%
19:00 +35°C° 0 mm 3 mps 688 mmHg 16%
20:00 +34°C° 0 mm 2 mps 688 mmHg 18%
21:00 +31°C° 0 mm 1 mps 689 mmHg 20%
22:00 +30°C° 0 mm 2 mps 689 mmHg 25%
23:00 +29°C° 0 mm 2 mps 689 mmHg 29%

7 August, Friday

Time Temperature Precipitation Wind Pressure Humidity
00:00 +28°C° 0 mm 3 mps 689 mmHg 33%
01:00 +27°C° 0 mm 3 mps 689 mmHg 37%
02:00 +26°C° 0 mm 3 mps 689 mmHg 41%
03:00 +26°C° 0 mm 3 mps 689 mmHg 45%
04:00 +25°C° 0 mm 3 mps 689 mmHg 47%
05:00 +25°C° 0 mm 3 mps 689 mmHg 49%
06:00 +25°C° 0 mm 2 mps 690 mmHg 51%
07:00 +26°C° 0 mm 3 mps 690 mmHg 45%
08:00 +28°C° 0 mm 3 mps 690 mmHg 40%
09:00 +30°C° 0 mm 3 mps 691 mmHg 35%
10:00 +33°C° 0 mm 3 mps 691 mmHg 31%
11:00 +34°C° 0 mm 3 mps 691 mmHg 27%
12:00 +36°C° 0 mm 4 mps 691 mmHg 23%
13:00 +37°C° 0 mm 4 mps 691 mmHg 21%
14:00 +38°C° 0 mm 4 mps 690 mmHg 20%
15:00 +38°C° 0 mm 4 mps 690 mmHg 18%
16:00 +38°C° 0 mm 4 mps 690 mmHg 18%
17:00 +38°C° 0 mm 4 mps 690 mmHg 18%
18:00 +38°C° 0 mm 3 mps 689 mmHg 19%
19:00 +36°C° 0.1 mm 3 mps 690 mmHg 22%
20:00 +32°C° 0.1 mm 2 mps 690 mmHg 25%
21:00 +30°C° 0.1 mm 1 mps 690 mmHg 29%
22:00 +29°C° 0.2 mm 1 mps 690 mmHg 32%
23:00 +28°C° 0.2 mm 1 mps 690 mmHg 35%

8 August, Saturday

Time Temperature Precipitation Wind Pressure Humidity
00:00 +28°C° 0.2 mm 1 mps 691 mmHg 39%
01:00 +27°C° 0 mm 1 mps 690 mmHg 40%
02:00 +26°C° 0 mm 1 mps 690 mmHg 42%
03:00 +26°C° 0 mm 1 mps 690 mmHg 43%
04:00 +26°C° 0 mm 1 mps 690 mmHg 44%
05:00 +25°C° 0 mm 1 mps 690 mmHg 45%
06:00 +25°C° 0 mm 1 mps 691 mmHg 46%
07:00 +27°C° 0 mm 1 mps 691 mmHg 42%
08:00 +29°C° 0 mm 1 mps 691 mmHg 38%
09:00 +31°C° 0 mm 2 mps 691 mmHg 33%
10:00 +32°C° 0 mm 2 mps 691 mmHg 30%
11:00 +34°C° 0 mm 3 mps 691 mmHg 26%
12:00 +36°C° 0 mm 3 mps 691 mmHg 23%
13:00 +36°C° 0 mm 3 mps 691 mmHg 21%
14:00 +37°C° 0 mm 4 mps 690 mmHg 19%
15:00 +37°C° 0 mm 4 mps 690 mmHg 17%
16:00 +37°C° 0 mm 4 mps 689 mmHg 17%
17:00 +37°C° 0 mm 4 mps 689 mmHg 17%
18:00 +36°C° 0 mm 3 mps 689 mmHg 17%
19:00 +35°C° 0 mm 3 mps 689 mmHg 19%
20:00 +33°C° 0 mm 3 mps 689 mmHg 21%
21:00 +30°C° 0 mm 2 mps 689 mmHg 23%
22:00 +29°C° 0 mm 2 mps 689 mmHg 24%
23:00 +28°C° 0 mm 2 mps 689 mmHg 25%

9 August, Sunday

Time Temperature Precipitation Wind Pressure Humidity
00:00 +27°C° 0 mm 1 mps 689 mmHg 25%
01:00 +27°C° 0 mm 1 mps 689 mmHg 28%
02:00 +26°C° 0 mm 1 mps 689 mmHg 32%
03:00 +25°C° 0 mm 1 mps 688 mmHg 35%
04:00 +25°C° 0 mm 1 mps 688 mmHg 38%
05:00 +24°C° 0 mm 1 mps 688 mmHg 41%
06:00 +24°C° 0 mm 1 mps 688 mmHg 45%
07:00 +26°C° 0 mm 1 mps 689 mmHg 38%
08:00 +28°C° 0 mm 2 mps 689 mmHg 32%
09:00 +30°C° 0 mm 2 mps 689 mmHg 26%
10:00 +33°C° 0 mm 3 mps 689 mmHg 22%
11:00 +34°C° 0 mm 4 mps 689 mmHg 18%
12:00 +36°C° 0 mm 5 mps 689 mmHg 14%
13:00 +36°C° 0 mm 5 mps 688 mmHg 13%
14:00 +37°C° 0 mm 5 mps 687 mmHg 12%
15:00 +37°C° 0 mm 5 mps 687 mmHg 11%
16:00 +37°C° 0 mm 5 mps 687 mmHg 11%
17:00 +36°C° 0 mm 5 mps 686 mmHg 11%
18:00 +36°C° 0 mm 5 mps 686 mmHg 11%
19:00 +34°C° 0 mm 4 mps 686 mmHg 13%
20:00 +31°C° 0 mm 3 mps 686 mmHg 15%
21:00 +29°C° 0 mm 2 mps 686 mmHg 17%
22:00 +28°C° 0 mm 2 mps 686 mmHg 18%
23:00 +27°C° 0 mm 2 mps 686 mmHg 19%
Show more